GFSSGP_925_temp_168.txt.gz
Temp
17 18 19 19 17 14 16 19 20 23 24 21 21 21 23 22 23 23 18 19 21 20 19 19 19 20 20 19 19 19 19 19 19 18 18 18 18 18 18 18 18 18 18 18 18 18 18 17 17
17 18 19 12 15 16 16 17 21 21 22 19 21 21 22 23 18 18 18 18 21 20 19 20 20 20 20 19 19 19 19 18 18 18 18 18 18 18 17 17 17 17 17 17 17 17 17 17 17
17 18 14 14 12 15 16 19 19 19 19 22 22 19 20 21 19 19 18 18 20 20 19 20 19 19 19 19 18 18 18 18 18 18 18 17 17 16 16 16 17 17 17 17 17 17 17 17 17
17 15 12 13 13 14 16 18 18 17 20 20 20 20 18 19 18 19 18 18 19 19 19 20 20 19 19 19 18 18 18 18 18 18 18 17 17 17 17 17 17 16 16 16 16 16 16 17 17
15 11 13 12 12 14 15 16 17 18 19 19 20 21 19 19 19 19 18 18 18 19 19 19 19 19 19 18 18 17 18 18 18 18 17 17 16 17 17 17 16 16 16 16 16 16 16 16 16
11 10 12 11 12 14 14 15 17 19 18 18 19 18 18 18 18 18 18 18 18 18 19 19 19 19 19 17 17 17 17 17 17 17 17 15 14 14 15 15 15 15 15 15 15 16 15 15 15
12 11 11 11 12 14 16 17 17 18 17 19 17 18 17 18 18 18 18 18 18 18 19 18 18 19 18 17 16 17 17 17 17 16 15 14 14 14 14 14 14 14 15 15 15 15 16 15 15
10 11 12 10 12 14 15 15 17 16 17 16 17 17 17 18 18 18 17 17 18 18 18 18 18 18 16 16 17 17 18 17 16 16 15 15 15 15 15 15 14 14 15 15 15 15 15 16 15
12 11 10 11 12 14 14 13 14 15 16 15 16 17 18 18 17 17 16 17 17 18 18 18 17 16 16 16 16 17 16 16 16 15 15 15 15 15 15 14 14 14 15 15 14 15 15 15 15
11 10 11 12 13 13 13 13 13 14 14 15 16 16 18 18 16 16 16 16 16 16 17 18 16 16 16 16 16 16 16 15 15 15 15 15 14 14 14 14 14 14 15 15 15 15 15 15 15
11 10 11 13 13 13 13 13 14 14 13 13 15 14 15 17 16 16 16 16 16 16 16 16 16 16 16 16 16 16 15 15 15 15 14 14 14 14 14 14 14 14 14 14 15 15 15 14 14
10 11 12 12 13 12 12 13 12 12 14 14 14 13 13 14 16 16 16 15 15 15 15 16 16 16 16 16 15 15 15 15 15 14 14 14 14 14 14 14 14 14 14 14 14 14 14 13 13
9 10 11 12 11 11 12 12 12 13 14 13 14 15 14 14 15 17 16 15 14 14 15 15 16 16 16 15 15 15 15 14 14 14 14 14 14 14 14 14 13 14 14 14 13 13 13 13 12
10 10 10 11 11 11 11 12 12 13 13 13 13 13 13 14 15 16 14 14 14 14 15 15 15 15 15 15 15 15 14 14 14 14 14 13 13 13 13 13 13 13 13 13 13 13 12 12 12
10 10 10 10 11 10 11 10 11 13 13 13 14 14 15 14 15 15 14 14 13 14 15 15 15 15 15 15 15 14 14 14 14 13 13 13 13 13 13 13 13 13 13 13 13 12 12 12 12
9 9 10 12 11 11 11 11 13 13 12 12 12 13 14 14 15 15 14 14 13 13 14 14 15 15 15 15 14 14 14 13 13 13 13 13 13 12 13 13 13 13 13 13 12 12 12 12 12
10 9 9 10 11 11 10 11 12 12 13 12 11 12 12 13 14 15 14 14 13 13 14 14 15 14 14 14 14 13 13 13 13 12 12 12 12 12 12 13 13 13 13 12 12 12 12 12 12
7 8 9 8 10 11 10 10 12 12 12 11 10 10 11 13 14 15 14 13 13 13 14 16 14 14 14 13 13 13 13 12 12 12 12 12 12 12 12 12 12 12 12 12 12 12 12 11 11
9 9 10 10 12 10 9 10 11 11 10 11 10 12 10 12 14 14 13 13 12 12 13 14 14 13 13 13 12 12 12 12 12 12 12 12 12 12 12 12 12 12 12 12 12 12 11 11 11
9 9 9 11 11 10 8 9 10 11 11 12 11 11 10 11 13 13 13 11 11 11 12 13 14 13 13 13 13 12 12 11 12 11 11 11 11 12 12 12 12 12 11 11 11 11 11 10 10
9 9 10 9 10 11 9 9 10 11 12 12 12 13 13 12 12 13 12 12 11 11 12 13 13 13 13 13 13 12 11 11 11 11 11 11 11 11 11 11 11 11 11 11 11 11 11 10 9
9 11 11 10 9 10 10 10 12 11 11 11 12 12 13 12 12 13 12 12 11 11 12 13 13 13 13 13 13 13 12 11 11 11 11 11 11 11 11 11 10 10 10 10 10 10 10 10 9
9 11 10 10 10 10 10 9 11 12 10 12 11 12 12 12 12 12 12 12 11 11 11 12 13 13 13 13 13 12 12 12 12 11 11 11 10 10 10 10 10 10 10 10 9 9 9 9 8
11 11 11 10 10 10 10 10 12 12 13 14 12 12 12 12 12 12 12 12 11 10 11 12 12 13 12 13 13 12 12 12 11 11 11 10 10 10 10 10 10 10 9 9 9 9 8 8 8
11 11 8 7 5 8 10 10 12 15 14 12 12 11 12 13 12 12 11 10 11 10 10 11 12 12 12 13 12 12 12 12 12 11 11 11 10 10 10 10 10 9 9 9 8 8 8 8 8
10 10 11 11 9 12 11 11 12 13 13 14 12 12 12 12 12 12 11 11 10 10 10 11 11 11 11 12 11 12 12 12 11 11 11 11 10 10 10 10 9 9 9 9 8 8 8 8 7
11 9 11 11 10 10 10 11 13 13 12 11 12 11 12 12 12 12 11 11 11 10 10 10 11 12 12 12 12 12 12 12 11 11 11 10 10 10 9 9 9 9 9 8 8 8 8 7 7
11 12 11 9 11 12 10 11 11 12 12 12 11 11 12 11 11 11 10 10 11 10 10 10 12 12 12 12 12 12 11 11 11 10 10 10 10 9 9 9 9 8 8 8 8 8 7 7 7
11 11 10 10 10 12 12 12 12 12 11 10 12 11 10 11 11 11 10 10 10 10 9 10 11 12 11 12 11 11 11 10 10 10 10 10 9 9 9 9 9 8 8 8 8 8 7 7 7
12 12 10 11 9 10 11 12 13 11 10 10 11 11 10 10 10 10 9 9 9 9 9 9 10 11 11 12 11 11 10 10 10 10 9 9 9 9 9 8 8 8 8 8 8 7 7 6 6

GFSSGP_925_temp_171.txt.gz
Temp
17 18 19 19 21 19 19 21 20 22 23 21 21 23 24 23 25 26 18 18 19 20 19 20 20 19 19 19 19 19 19 19 19 19 19 18 18 18 18 18 18 18 18 18 18 18 18 17 17
17 18 19 15 19 20 20 18 21 21 21 20 20 22 22 25 20 20 18 18 18 20 19 19 20 19 19 19 19 19 19 19 18 18 18 18 18 17 17 17 17 17 17 17 17 17 17 17 17
17 18 17 17 15 19 19 19 20 20 19 21 22 20 20 21 20 20 18 18 18 18 18 19 20 19 19 19 19 19 18 18 18 17 17 17 17 16 16 16 17 17 17 17 17 17 17 17 17
17 15 14 17 16 16 17 19 18 19 21 20 20 22 20 18 19 19 18 18 18 18 18 19 20 19 19 19 19 18 18 18 18 17 17 17 16 16 17 17 17 17 17 17 17 16 16 16 16
15 13 15 14 14 15 16 16 17 18 19 20 19 21 20 18 18 19 18 18 18 18 19 19 19 19 19 19 18 18 17 18 17 17 17 16 16 16 16 16 16 16 16 16 16 16 15 16 16
13 13 14 15 13 14 15 16 16 18 18 19 19 19 19 18 18 19 18 18 18 19 19 19 19 19 19 19 18 17 18 17 17 17 17 16 15 15 14 15 15 15 15 15 15 15 15 15 16
13 13 13 12 12 14 17 16 17 17 17 19 17 18 19 19 19 19 18 18 18 18 19 19 19 18 18 18 17 16 17 17 17 17 16 15 15 14 14 14 14 15 15 15 15 15 15 15 16
12 13 11 11 13 14 15 15 15 16 17 16 17 18 19 19 17 18 18 18 18 18 18 19 18 18 18 17 16 17 17 18 17 17 15 16 15 15 15 15 15 14 14 14 14 15 15 15 15
12 12 11 12 12 14 14 14 15 15 15 15 16 17 18 17 17 17 17 17 17 18 18 18 18 18 18 16 16 17 17 17 17 16 15 15 15 15 15 14 14 14 14 14 14 15 15 15 15
12 11 12 12 12 13 14 13 14 14 15 15 16 17 16 17 17 16 16 16 17 18 17 18 17 17 16 16 16 16 16 16 16 15 15 15 14 14 14 14 14 14 15 15 15 15 15 15 15
11 11 11 12 13 13 13 13 14 14 14 15 15 15 16 15 15 16 17 16 16 17 17 17 17 17 16 16 16 16 16 15 15 15 15 15 14 14 14 14 14 14 14 15 15 15 15 14 14
10 11 11 12 13 12 12 13 13 13 14 15 15 15 14 15 16 15 17 16 15 16 16 16 17 16 16 16 16 16 15 15 15 15 14 14 14 14 14 14 14 14 14 14 14 14 14 14 13
9 10 11 11 11 11 11 12 12 13 14 15 14 14 15 15 15 15 16 17 15 15 16 16 16 16 15 16 15 15 15 15 14 14 14 14 14 14 14 14 14 14 14 14 13 13 13 13 13
10 10 10 11 11 11 11 12 12 13 14 13 14 14 14 14 14 15 16 16 15 15 15 15 15 15 15 15 15 15 15 14 14 14 14 13 13 13 13 13 14 13 13 13 13 13 12 12 12
10 9 10 11 11 11 11 11 11 13 13 13 14 14 14 15 16 15 16 16 15 14 14 15 14 14 15 15 15 14 14 14 14 13 13 13 13 13 13 13 13 13 13 13 12 12 12 12 12
9 9 9 11 11 11 11 12 14 14 13 13 13 13 13 14 15 15 15 15 14 14 13 13 13 14 15 14 14 14 14 14 13 13 13 13 13 13 13 13 13 13 12 12 12 12 12 11 11
9 8 9 11 11 11 11 11 12 12 12 12 13 13 13 14 14 14 15 14 13 14 13 12 13 13 14 14 14 13 13 13 13 13 13 12 12 12 12 12 12 12 12 12 12 12 12 11 12
8 9 10 10 11 10 11 11 12 13 12 13 14 13 13 13 14 15 14 14 13 13 12 12 13 13 14 13 13 13 12 12 12 12 12 12 12 12 12 12 12 12 12 12 12 12 11 11 12
10 9 9 10 11 11 11 11 12 12 12 12 13 12 12 13 14 14 14 14 12 11 11 11 12 12 13 12 12 12 12 12 11 12 12 12 12 12 12 12 12 12 12 12 12 11 11 11 12
9 9 10 11 11 11 10 10 11 12 11 12 12 13 13 14 13 14 13 12 11 11 10 10 11 12 13 13 13 12 12 11 11 11 11 11 11 11 12 12 12 11 12 11 12 11 11 10 11
10 10 10 10 11 12 11 11 11 12 12 12 12 13 13 13 13 14 13 12 11 10 10 10 12 12 13 13 12 12 11 11 10 10 11 11 11 11 11 11 11 11 11 11 11 11 11 10 9
10 11 11 10 10 10 10 11 13 13 12 11 12 12 12 13 13 13 13 12 11 10 10 10 11 11 12 13 13 13 12 10 11 11 11 10 10 11 11 11 10 10 10 10 10 10 10 10 9
10 10 10 10 10 10 11 9 12 11 13 12 12 12 12 13 13 13 12 12 11 10 10 10 10 11 12 12 13 13 12 12 11 11 10 10 10 10 10 10 10 10 10 10 9 9 9 9 9
11 11 11 10 10 10 10 10 13 13 13 14 14 12 12 12 12 13 12 11 11 10 10 9 10 10 11 12 13 13 12 12 11 10 10 10 10 10 10 10 9 9 9 9 9 9 9 8 8
10 10 10 8 7 11 10 10 12 13 15 14 13 14 12 12 12 12 12 11 10 10 9 9 9 10 11 12 12 12 12 12 12 11 10 10 10 9 9 9 9 9 9 9 9 8 8 8 8
10 10 11 11 10 12 11 11 13 13 13 14 13 13 12 11 12 12 11 11 10 10 9 10 10 10 11 11 12 12 12 12 11 11 11 10 10 10 9 9 9 9 9 8 8 8 8 7 7
10 10 11 11 10 11 11 11 12 14 13 13 12 12 10 11 12 11 11 11 10 10 9 10 10 10 11 12 11 11 12 12 11 10 10 10 10 10 9 9 9 9 8 8 8 8 8 7 7
11 11 11 10 11 11 11 11 11 13 11 11 11 11 10 11 11 11 11 11 10 9 9 9 10 11 11 10 11 11 11 11 11 11 10 10 9 9 9 8 9 8 8 8 8 8 8 7 7
10 10 9 10 10 11 12 13 13 13 10 9 10 11 10 10 11 11 10 10 9 9 8 9 9 10 10 10 12 12 11 10 10 10 10 9 9 9 8 8 8 8 8 8 8 8 7 7 6
11 11 10 11 11 10 10 12 14 10 11 11 10 10 10 10 10 10 9 10 9 9 8 9 9 10 10 11 11 11 10 10 10 9 9 9 9 8 8 8 8 8 8 7 7 7 7 6 6

GFSSGP_925_temp_174.txt.gz
Temp
17 18 19 23 26 26 27 27 26 27 28 26 27 27 29 28 30 29 20 21 21 23 22 20 20 20 19 19 19 19 19 18 18 18 19 19 19 18 18 18 18 18 18 18 18 18 18 17 17
17 18 21 24 25 26 28 26 26 27 25 26 26 26 27 28 25 25 22 20 21 22 22 21 20 19 19 19 18 19 19 19 19 19 19 18 18 18 17 18 18 18 17 17 17 17 17 17 17
17 18 23 24 25 26 27 25 25 25 25 25 27 26 26 26 25 23 20 19 21 22 22 21 20 19 19 19 19 19 19 18 18 18 18 18 17 17 16 16 17 17 17 17 17 17 17 17 17
18 21 21 23 25 24 24 25 23 24 25 24 24 26 25 21 22 21 19 19 21 22 22 21 20 19 19 19 19 19 18 18 18 17 17 17 16 16 16 17 17 17 17 16 16 16 17 17 17
18 21 23 22 22 22 23 23 22 23 24 24 23 25 25 22 21 20 19 19 20 21 21 20 20 20 20 19 19 19 18 18 17 17 16 16 17 17 17 17 17 16 16 16 16 16 16 16 16
21 20 22 23 23 21 22 22 22 23 23 23 23 23 24 21 21 21 19 19 19 20 21 21 19 20 19 19 19 18 17 17 17 17 16 16 15 15 15 15 16 15 15 15 15 15 15 15 16
20 20 21 20 21 20 22 21 22 21 22 23 21 22 25 22 19 19 18 18 19 20 20 20 19 19 19 19 19 17 17 16 17 17 16 16 15 14 14 14 14 15 15 15 15 15 15 15 16
18 19 18 19 21 20 20 19 19 20 21 20 21 22 23 20 19 18 18 18 19 19 20 20 20 18 18 18 18 16 16 16 16 16 16 16 15 15 15 15 14 14 14 14 14 15 15 15 15
17 19 20 19 18 20 18 19 21 19 19 21 21 21 21 20 19 19 17 17 18 18 18 18 18 18 17 18 17 16 16 16 16 16 16 15 15 15 15 14 14 14 14 14 14 15 15 15 15
17 18 19 18 18 18 19 18 18 18 19 20 20 21 20 20 20 19 19 16 16 17 18 18 18 18 17 17 16 16 16 16 16 15 15 16 15 15 14 14 14 14 14 15 15 15 15 15 16
15 17 16 17 17 17 17 17 18 17 17 20 20 20 21 19 20 20 19 18 16 16 17 18 17 17 17 17 16 16 16 16 15 15 15 15 14 14 15 14 14 14 14 15 15 15 15 15 15
14 15 15 16 16 15 16 17 16 17 18 19 19 19 19 18 19 19 20 19 18 17 16 17 17 17 17 17 16 16 16 15 15 15 14 15 14 14 14 15 14 14 14 15 15 15 15 14 14
13 14 14 14 14 14 15 15 15 16 17 18 18 18 18 18 18 18 19 19 19 17 16 16 17 17 17 17 15 16 16 15 15 14 14 14 14 14 14 14 14 14 14 14 14 15 14 14 14
13 13 13 14 14 14 14 15 16 17 18 17 17 17 18 18 18 18 19 19 19 19 15 14 16 16 16 17 14 15 15 15 15 14 14 14 14 13 14 13 13 13 13 14 14 14 14 14 13
12 11 14 14 14 14 14 15 15 17 17 17 17 18 18 18 17 18 19 19 19 19 15 15 14 15 15 15 14 14 14 14 14 14 13 13 13 13 13 13 13 13 12 13 13 13 13 13 13
13 13 14 15 15 15 14 14 18 18 17 17 17 17 17 17 17 18 18 19 18 19 15 14 12 14 14 15 15 14 13 13 13 13 13 13 13 12 12 12 12 12 12 12 13 13 13 13 13
13 13 14 14 15 14 13 14 16 16 17 17 17 17 18 17 18 17 17 17 18 19 16 13 12 11 14 14 13 13 12 13 12 12 12 12 12 12 12 12 12 12 11 12 12 12 13 13 13
13 13 14 14 15 15 13 14 15 16 16 17 17 17 17 18 17 18 18 17 17 18 15 12 12 10 12 13 13 12 12 12 12 12 12 11 11 11 12 11 11 11 11 11 11 11 11 11 12
13 12 11 13 15 14 14 15 16 17 17 17 17 17 17 17 18 17 17 17 16 16 14 11 10 10 11 11 11 12 12 12 11 11 11 11 11 12 11 11 11 11 11 11 11 11 11 11 10
12 10 11 14 14 14 14 15 16 17 17 18 17 17 17 17 17 18 16 17 16 14 12 11 10 10 10 10 12 13 12 12 11 10 10 11 11 12 12 12 11 11 11 11 10 10 11 10 10
12 12 13 13 14 14 14 16 18 19 19 19 18 18 16 16 16 17 17 17 15 13 11 10 10 10 10 10 12 12 11 10 10 10 10 10 11 11 11 11 11 11 10 11 11 10 11 11 9
10 15 14 13 11 12 13 12 16 18 18 18 18 18 17 17 16 16 17 17 15 13 11 10 10 10 10 10 11 11 12 12 12 11 10 10 10 11 11 11 11 11 11 10 10 10 10 10 11
12 14 13 13 11 10 13 12 17 19 17 17 18 17 17 18 17 16 17 17 14 12 11 10 9 9 10 10 12 13 13 12 11 10 9 9 10 10 10 10 10 10 10 10 10 9 9 9 10
14 12 14 11 11 12 15 14 17 18 17 17 17 17 16 17 17 17 16 16 14 11 10 10 9 9 9 10 12 13 12 11 11 10 9 9 9 9 9 10 10 9 9 10 9 8 8 8 8
12 13 13 13 12 14 15 13 16 18 17 17 16 16 16 16 17 17 16 16 13 11 10 10 9 9 9 10 12 12 12 11 11 10 10 9 9 8 9 9 9 9 9 9 8 8 7 8 8
14 13 12 12 14 15 16 14 18 18 17 16 15 14 15 15 16 16 16 15 12 10 10 10 9 9 10 10 12 12 11 11 11 11 10 10 10 9 9 9 9 9 9 9 8 8 7 7 7
13 12 14 11 14 12 16 17 18 18 17 14 13 11 14 15 15 16 16 13 11 10 10 10 9 9 10 10 11 11 11 11 10 10 10 9 9 8 9 9 9 8 8 8 7 7 7 7 6
13 13 12 12 12 13 16 16 16 17 14 12 10 12 14 14 14 15 15 12 11 10 10 9 9 9 10 9 10 10 11 11 10 10 9 9 9 9 9 9 8 8 8 7 8 7 7 6 6
14 13 11 11 12 12 13 16 18 15 15 11 10 13 12 14 14 15 13 11 11 10 9 9 9 9 9 9 9 11 11 10 10 9 9 8 8 9 8 8 8 8 8 8 8 6 6 6 5
14 14 13 11 12 13 12 14 16 16 15 13 12 11 11 13 14 13 12 11 10 10 9 9 9 9 9 10 10 9 10 10 9 8 8 9 8 7 8 8 8 8 7 7 6 6 5 5 5

GFSSGP_925_temp_177.txt.gz
Temp
18 21 23 25 26 28 29 30 32 30 30 29 29 29 30 29 30 28 24 24 23 25 23 20 20 19 19 19 19 19 19 19 18 18 18 18 19 19 18 18 18 18 18 18 18 18 17 18 17
18 21 23 27 26 28 30 32 29 30 28 28 29 29 29 30 28 28 25 22 23 25 23 21 20 19 19 19 19 19 19 19 19 19 19 19 18 18 18 18 18 18 18 17 17 17 17 17 17
20 21 25 26 27 28 30 28 29 27 27 27 28 28 28 28 27 26 23 21 23 25 24 21 20 20 19 19 19 19 19 19 19 19 18 18 17 17 17 17 18 18 17 16 17 17 17 17 17
21 23 25 25 27 28 27 28 27 26 27 27 27 27 28 24 25 24 21 20 24 25 24 21 20 19 20 19 19 19 19 19 18 18 18 17 17 17 16 17 17 17 16 16 16 17 17 17 17
22 24 24 25 26 28 26 26 26 25 26 27 26 26 27 25 23 24 21 20 23 25 24 22 21 19 20 20 19 19 19 18 18 17 17 16 16 16 16 17 16 16 16 16 16 16 16 16 17
23 23 24 25 27 26 25 26 25 25 26 26 25 25 26 23 22 21 21 20 20 21 22 21 21 19 20 20 19 19 18 18 17 17 16 16 16 16 15 16 16 15 15 15 15 15 15 16 16
22 23 23 24 24 24 25 25 23 24 24 25 25 23 27 25 21 20 19 20 19 21 20 20 20 19 19 19 18 19 18 17 16 16 16 15 15 15 15 15 15 15 15 15 15 15 15 15 16
21 21 22 23 23 23 24 22 23 22 23 25 24 23 25 24 21 21 19 18 18 20 20 21 20 20 19 18 18 18 17 16 16 16 16 16 15 14 15 16 15 15 15 14 14 15 14 15 16
20 21 22 23 22 22 23 21 23 23 21 22 23 24 24 24 23 21 21 19 19 18 20 21 20 20 18 18 17 18 16 16 16 16 17 17 16 16 16 15 15 15 14 14 15 14 15 16 16
19 21 22 21 21 21 21 21 21 21 21 22 23 24 23 22 22 22 21 21 19 18 18 19 18 18 18 17 17 17 16 15 16 16 16 18 17 17 15 14 15 15 15 15 15 15 16 16 16
19 19 20 19 20 19 19 19 21 20 19 21 21 23 23 23 22 21 21 21 20 19 18 17 18 17 17 17 17 17 17 18 18 17 17 18 16 15 16 14 14 15 15 15 15 15 16 17 17
16 19 18 18 18 17 17 18 18 19 20 21 21 22 22 21 21 21 21 21 21 20 18 17 17 17 17 17 17 18 18 18 17 17 17 17 16 16 16 17 16 16 16 16 17 17 16 16 16
16 17 17 17 17 17 17 17 17 18 20 20 21 20 20 20 21 20 20 21 21 21 19 17 16 16 16 17 17 18 18 18 18 17 16 16 16 15 16 16 16 16 16 16 16 17 16 16 16
16 15 16 16 17 17 16 17 18 19 20 20 20 20 20 20 20 20 20 20 21 21 20 16 17 15 15 17 16 17 18 18 18 17 16 16 16 15 16 15 15 15 16 16 16 16 16 15 15
15 14 16 17 17 16 17 16 19 21 20 19 19 20 20 20 20 20 20 20 20 21 21 17 15 16 14 14 16 17 17 17 17 16 16 16 15 15 15 15 15 15 15 15 15 15 15 15 15
15 16 16 19 18 18 15 16 20 20 20 20 20 20 20 20 20 20 20 20 20 20 20 19 15 14 14 12 14 15 16 16 17 16 15 15 15 15 14 14 14 14 14 15 15 15 15 15 15
17 15 17 18 17 18 16 16 18 20 19 19 19 20 20 20 20 20 19 19 19 20 20 19 14 12 13 13 11 14 15 16 16 15 15 15 15 14 14 14 13 13 13 14 14 14 15 14 14
15 16 16 16 18 17 16 17 18 20 20 20 20 20 20 20 20 20 20 19 19 19 19 19 13 12 12 11 11 12 13 14 14 14 14 14 13 14 13 13 13 13 13 13 13 13 13 13 13
15 14 14 15 17 16 16 17 18 19 20 20 21 21 21 21 21 19 19 19 19 18 19 16 12 11 10 10 11 12 13 13 14 13 13 12 12 12 12 12 12 13 13 13 13 12 12 12 12
15 14 13 16 18 17 16 16 18 20 21 21 20 20 20 20 20 19 19 18 19 18 18 12 12 11 10 11 10 11 12 13 13 12 12 11 11 11 11 11 11 11 11 11 11 12 12 11 11
15 14 15 15 16 17 16 16 19 21 21 21 20 20 20 20 19 19 19 18 18 18 16 12 11 10 10 10 10 10 11 12 11 11 10 10 11 11 11 11 11 11 11 10 10 11 12 11 10
12 16 16 15 14 12 13 13 16 19 21 22 21 20 20 19 19 19 18 19 18 18 15 11 11 10 10 10 10 11 10 11 11 11 10 10 10 11 11 11 11 11 10 10 10 10 11 12 11
14 16 15 15 12 11 14 12 17 20 21 20 20 19 19 18 18 18 19 18 18 18 14 11 10 10 10 10 9 9 9 12 12 10 10 9 9 10 10 11 10 10 10 10 10 10 10 10 11
16 15 16 14 12 12 17 16 17 19 20 20 20 18 17 16 16 18 19 18 18 16 12 10 10 9 9 9 9 10 11 11 11 10 9 9 9 9 10 10 10 10 10 9 9 9 9 9 9
15 15 13 15 14 16 19 17 18 20 21 20 18 16 16 14 16 17 18 18 17 13 11 10 10 10 9 9 10 11 12 11 11 10 10 10 9 9 8 9 9 9 9 9 9 9 8 9 9
15 14 12 12 14 15 17 16 18 21 21 18 18 16 14 13 15 17 18 18 17 12 10 10 9 9 9 9 10 11 11 12 11 11 10 10 10 9 8 8 8 8 8 8 8 8 8 8 8
15 13 15 12 15 15 17 19 20 20 18 17 17 14 13 14 16 16 17 18 13 11 10 10 9 9 9 10 11 12 11 11 11 11 11 11 9 8 8 8 8 8 8 8 8 8 7 8 7
15 16 13 13 12 13 16 17 17 18 16 17 16 14 12 13 15 16 17 16 13 11 10 9 9 9 9 9 11 11 12 12 11 11 10 9 9 8 8 8 7 7 7 7 8 8 7 7 7
16 14 12 11 12 12 13 16 19 17 17 15 13 12 11 11 15 16 16 13 12 10 10 9 9 9 9 9 11 11 12 11 11 10 9 9 8 8 8 8 7 7 7 7 7 7 7 6 6
16 15 16 12 13 13 13 14 20 18 16 12 9 11 11 13 14 12 11 11 10 10 9 9 9 8 9 8 8 10 11 11 10 10 9 8 8 8 7 7 7 7 7 7 7 6 6 6 6

GFSSGP_925_temp_180.txt.gz
Temp
17 20 22 23 21 22 23 26 29 29 29 26 27 28 26 27 27 23 24 23 24 23 20 20 19 19 19 19 18 19 19 19 19 18 18 18 18 18 18 18 18 18 18 18 18 18 17 18 18
19 21 23 21 21 22 24 27 28 25 26 26 27 28 28 25 25 24 23 22 22 24 21 20 19 19 19 18 19 19 19 19 19 19 19 19 18 18 18 18 18 18 18 17 17 17 17 17 17
20 22 20 21 22 22 25 26 24 25 26 25 26 26 27 24 24 24 22 21 22 25 22 20 20 19 19 19 19 19 19 19 19 19 19 18 18 17 17 17 17 18 17 17 16 17 17 17 17
20 21 20 21 22 25 27 25 24 24 25 26 26 24 25 24 24 23 22 21 22 25 22 22 20 19 19 19 19 19 19 19 19 19 18 17 17 17 16 16 17 17 17 16 17 17 17 17 17
22 20 20 21 23 24 25 24 24 23 24 25 25 24 24 22 23 22 21 21 22 23 23 22 21 20 20 19 19 19 19 19 18 18 17 17 17 16 16 17 17 17 16 16 16 16 16 17 17
19 20 20 21 23 25 25 25 23 22 23 24 24 23 23 22 21 20 20 21 22 21 22 22 21 20 20 20 19 19 19 19 19 17 17 16 16 15 15 16 16 16 15 15 15 15 16 16 17
20 19 20 21 21 22 24 22 21 21 21 22 22 21 22 20 21 21 20 20 19 21 20 21 21 20 20 19 19 19 18 19 18 17 16 16 16 15 15 15 15 15 15 15 15 15 15 16 17
18 19 21 22 21 21 22 21 21 21 21 21 23 21 20 22 22 22 21 20 19 19 20 20 21 20 19 19 19 18 19 18 17 17 17 16 16 15 14 15 14 15 15 15 15 14 15 16 16
19 17 19 21 21 21 21 21 22 21 20 20 21 21 22 24 23 22 22 21 20 20 19 20 20 19 19 18 18 18 18 17 17 17 17 17 16 15 15 14 15 14 14 15 15 14 16 16 16
17 17 20 20 19 19 19 18 19 19 19 19 19 21 23 23 23 22 21 20 21 20 20 19 19 19 19 18 18 18 17 18 17 16 17 17 16 16 15 15 15 14 15 15 15 16 16 16 17
17 17 19 19 19 18 17 17 18 17 17 18 18 20 20 22 21 21 21 21 21 21 20 20 19 18 18 17 17 17 17 17 16 17 17 17 17 16 16 15 15 15 15 16 16 16 16 16 16
15 18 18 18 18 17 16 17 16 16 17 18 19 19 19 19 19 19 20 21 21 21 20 20 19 17 17 17 17 16 17 17 17 17 17 17 17 16 16 16 15 15 16 16 16 16 16 16 16
15 17 17 17 16 16 17 16 16 16 17 18 19 19 18 18 19 20 20 20 20 20 21 20 19 18 16 17 17 17 17 18 18 17 17 17 16 16 16 16 16 16 16 16 17 16 16 16 16
16 15 15 15 16 17 16 16 16 17 18 18 19 18 18 18 18 19 20 20 20 20 20 20 19 19 16 17 16 17 18 18 17 17 17 16 16 16 16 16 16 16 16 16 16 16 16 15 15
15 13 15 17 18 16 17 15 15 17 19 19 18 18 18 18 19 19 20 20 20 20 20 20 20 18 17 16 15 14 16 17 17 17 16 16 16 15 16 15 15 15 15 15 15 15 15 15 15
16 16 14 18 18 18 16 14 16 18 18 17 18 18 18 18 18 20 20 20 20 20 20 20 19 17 14 15 14 14 14 16 17 16 16 16 15 15 15 15 15 15 15 15 15 15 15 15 15
16 13 14 16 17 17 16 15 17 18 18 18 18 18 18 18 18 20 20 20 19 19 19 20 17 14 13 14 13 13 11 13 14 16 16 15 15 15 14 14 14 14 14 14 14 14 14 14 14
13 13 14 14 16 15 15 15 17 18 18 17 18 18 18 18 18 20 20 20 20 19 19 19 17 14 12 13 13 13 13 13 13 14 15 15 15 14 14 13 13 13 14 14 14 14 14 14 14
14 13 13 14 16 15 15 16 16 17 17 17 18 17 18 18 18 20 20 20 19 19 19 19 15 13 12 12 11 11 11 11 12 13 14 14 14 14 13 13 13 13 13 13 13 13 13 12 13
14 13 13 15 16 16 15 15 15 16 17 18 19 18 17 18 18 18 19 19 19 19 19 18 15 12 11 12 11 10 10 11 11 11 12 13 13 13 13 12 13 13 13 13 12 12 12 11 12
14 13 14 14 15 15 13 13 15 16 18 19 19 18 18 19 17 16 17 18 18 18 18 18 14 11 11 11 11 10 10 10 10 10 10 11 12 12 12 12 12 12 12 12 12 12 12 11 11
11 16 15 14 12 11 14 12 14 16 17 19 19 18 19 15 15 15 15 15 17 18 18 16 12 11 11 11 10 10 10 9 10 9 9 10 11 11 12 12 11 12 12 11 11 11 12 12 11
13 15 14 13 12 11 13 11 13 16 17 18 18 18 15 15 14 14 14 15 16 18 16 14 12 11 10 10 10 9 9 9 9 9 9 10 10 11 11 11 11 11 11 11 11 11 11 11 11
15 14 14 12 10 9 12 12 13 16 18 18 17 16 15 15 15 14 14 14 16 17 13 12 11 10 10 10 9 9 9 8 8 8 9 9 9 10 10 11 11 10 10 10 10 10 10 10 10
16 12 9 9 7 11 15 13 15 17 17 16 15 15 15 14 14 13 14 15 15 12 11 10 10 10 10 9 9 8 8 8 8 8 9 8 9 9 9 10 10 10 10 9 9 9 9 9 9
14 14 8 10 10 12 14 12 14 18 17 16 16 15 13 13 13 12 14 14 13 12 11 10 10 9 9 9 9 9 9 8 8 9 9 9 9 9 9 9 9 9 9 9 9 9 9 9 9
14 11 13 11 12 10 12 15 17 18 15 14 13 12 11 10 12 12 13 13 11 11 10 10 10 9 9 9 9 9 8 9 8 9 10 9 9 8 8 9 9 8 8 8 8 8 8 8 8
14 15 11 10 10 10 11 13 11 15 14 13 11 12 11 10 11 12 14 12 11 10 10 9 9 10 9 9 9 9 9 9 9 10 10 9 9 8 8 8 8 8 8 8 8 8 8 8 7
14 12 12 10 10 8 10 12 16 16 15 11 11 12 10 10 11 11 12 11 10 10 9 9 9 9 9 9 9 10 9 9 10 10 9 9 8 8 8 8 8 8 8 8 8 7 7 7 7
16 15 14 8 10 9 10 11 16 17 13 10 11 10 10 10 11 10 10 10 10 10 9 9 9 9 9 9 9 9 10 10 9 9 8 8 8 8 8 7 8 7 8 7 8 7 6 6 6

GFSSGP_925_temp_183.txt.gz
Temp
19 20 21 21 19 16 19 22 22 22 23 24 23 26 24 22 23 22 22 23 21 21 20 20 19 19 19 18 19 19 19 19 19 19 18 18 19 19 18 18 18 18 18 18 18 18 17 17 18
19 20 21 16 17 18 19 22 21 22 24 22 24 24 24 22 22 22 22 22 21 21 20 20 19 19 19 18 18 19 19 19 19 19 19 18 19 18 18 18 18 18 18 18 17 17 17 17 18
20 21 16 16 16 18 20 21 22 22 23 23 23 23 23 21 22 21 21 22 22 21 20 20 20 19 19 18 18 18 19 19 19 19 19 18 18 18 17 17 17 17 17 17 16 17 17 17 17
20 18 15 17 19 20 23 21 22 21 22 22 24 23 21 21 22 20 21 22 22 21 21 21 21 19 19 18 19 19 19 19 19 19 18 18 17 17 17 17 17 17 17 16 16 17 17 17 18
19 14 16 18 20 21 22 22 20 20 20 20 21 22 21 21 21 21 21 21 21 21 20 22 22 20 19 19 19 19 19 19 18 18 18 17 17 16 16 16 16 17 16 16 16 16 16 17 17
15 14 15 17 19 20 20 19 20 18 19 19 20 20 19 20 21 21 20 21 20 20 20 21 22 21 20 19 19 19 19 19 18 18 17 17 16 16 16 16 16 16 15 15 15 15 16 17 17
17 14 17 19 19 20 21 20 18 18 19 19 20 20 20 20 21 22 22 21 21 20 20 20 20 21 20 20 19 19 19 19 19 18 17 16 16 15 15 15 15 15 15 15 15 15 16 17 17
14 14 19 19 18 20 18 19 21 19 18 21 21 18 19 20 22 22 22 22 22 21 20 20 20 20 20 19 19 19 18 18 19 17 16 17 17 16 15 15 15 14 14 14 14 14 17 17 17
16 14 15 17 17 17 17 16 17 17 17 18 19 19 20 22 21 22 23 21 21 22 21 20 19 20 19 19 19 18 18 18 19 16 17 17 17 16 15 15 15 15 14 14 14 15 16 17 17
14 13 17 18 17 16 16 15 15 16 15 17 17 17 21 21 20 19 20 19 20 20 21 21 20 20 19 19 19 18 18 17 19 17 17 17 17 16 16 15 15 14 15 15 14 16 16 17 17
15 14 16 17 17 15 15 15 16 15 15 15 16 15 16 18 18 18 19 19 20 21 21 20 20 19 19 18 18 17 17 17 18 17 17 17 16 15 15 15 15 15 15 15 15 15 16 16 16
14 15 15 16 15 15 14 15 14 14 15 16 16 16 16 16 15 17 18 20 20 20 20 20 20 20 19 18 17 17 17 17 17 17 17 16 16 15 16 15 15 15 15 16 16 16 15 16 16
14 14 15 14 14 14 14 14 13 14 16 16 16 16 16 16 16 18 19 20 20 19 20 20 20 20 20 18 17 17 16 17 17 17 17 16 16 16 16 16 15 15 15 16 16 16 16 16 16
14 13 13 13 14 14 15 14 15 15 15 15 16 15 15 15 16 18 19 19 20 20 20 20 20 19 19 18 17 15 15 15 16 16 17 16 17 16 16 15 15 15 16 16 16 16 16 15 15
13 12 13 15 16 15 16 14 14 15 14 15 16 16 16 16 18 17 19 19 20 20 20 20 19 19 18 19 17 16 14 14 14 15 16 17 17 16 16 16 16 16 16 16 16 15 15 15 15
13 13 12 15 15 16 16 13 15 15 15 14 16 17 17 17 17 19 20 20 20 20 19 20 19 19 17 16 15 16 16 14 14 15 15 16 16 16 16 16 16 15 15 15 15 15 15 14 14
13 10 12 12 15 15 15 13 14 15 16 15 15 16 16 17 17 17 19 20 20 20 19 19 19 18 17 14 14 15 14 13 12 13 15 15 15 15 15 15 15 15 15 15 15 14 14 14 14
11 10 12 12 14 14 13 13 15 16 16 15 15 15 16 16 16 17 18 19 19 19 19 19 19 16 15 14 13 13 13 13 13 13 13 13 15 15 15 15 15 14 14 14 14 14 14 14 14
12 12 11 12 14 13 14 14 15 15 15 14 14 14 14 14 17 18 19 19 19 18 19 19 17 13 14 13 12 12 12 13 13 13 13 12 13 14 14 14 14 14 14 14 14 14 14 13 14
12 11 11 12 14 14 13 13 14 14 14 14 14 14 15 17 17 15 16 16 16 17 18 18 16 12 13 12 13 12 11 10 10 10 11 12 11 13 14 13 13 13 13 13 13 13 13 12 13
12 11 12 12 13 13 12 11 13 15 15 15 16 14 16 15 15 14 14 15 15 16 16 17 15 12 13 11 11 11 10 10 9 10 10 11 11 13 13 13 13 13 13 13 13 13 13 11 11
8 13 13 13 10 8 12 11 12 13 14 15 17 15 14 15 14 13 13 14 15 15 16 17 14 13 12 11 11 11 10 10 9 9 10 10 13 11 12 12 12 13 13 12 12 12 13 13 11
12 14 12 12 10 7 11 9 10 13 15 15 14 14 14 13 12 12 12 13 14 14 14 13 14 12 12 11 10 10 10 10 9 9 8 9 8 10 11 11 12 12 12 12 12 12 12 12 12
13 12 12 8 6 7 10 10 14 14 15 15 14 13 12 11 11 12 13 13 13 13 13 12 11 11 11 10 10 10 9 8 7 7 8 8 8 10 10 11 11 11 11 11 11 11 11 11 11
13 10 6 6 6 9 12 11 11 14 16 15 13 12 11 10 11 11 10 11 12 13 12 11 10 10 10 10 10 9 8 8 8 8 7 8 8 9 9 10 10 10 10 10 10 10 10 10 11
12 11 7 8 7 11 12 9 12 15 14 14 13 11 12 12 12 12 11 11 11 12 11 11 10 10 10 10 9 8 8 8 7 7 6 8 8 9 9 9 9 9 9 10 10 10 10 10 9
13 10 11 10 9 8 9 11 16 15 14 11 11 11 11 11 10 11 11 11 11 10 11 10 10 10 10 9 9 8 8 7 7 7 7 7 9 8 8 9 9 9 9 9 9 9 9 9 9
13 13 9 7 7 9 8 11 10 13 13 11 9 10 10 10 10 11 11 10 10 10 10 10 9 9 9 9 9 8 7 7 8 7 7 7 8 8 8 8 8 8 8 9 9 8 8 9 8
11 11 11 9 8 6 7 11 15 14 15 9 9 10 10 8 10 11 10 10 10 10 9 9 9 9 9 9 8 8 7 7 7 7 8 8 9 8 8 8 8 8 8 8 8 8 8 8 7
13 13 11 7 8 8 9 12 15 14 15 11 10 10 9 9 10 10 10 10 10 9 9 9 9 9 9 9 8 8 7 7 7 7 8 7 8 8 8 8 8 8 8 8 8 8 7 7 6

GFSSGP_925_temp_186.txt.gz
Temp
19 20 21 20 18 15 19 22 21 21 22 23 20 23 20 20 21 21 21 21 22 20 19 19 19 18 18 18 18 19 19 19 19 19 18 19 19 18 18 18 18 18 18 18 18 18 17 17 18
19 20 20 14 16 17 18 21 22 22 22 20 23 23 22 21 21 21 21 20 20 21 20 19 19 19 19 18 18 18 19 19 19 19 18 19 18 18 18 18 18 18 18 18 18 17 17 18 18
20 19 16 15 14 17 18 21 21 22 20 20 23 21 21 20 21 20 20 20 20 21 21 20 19 19 18 18 18 19 19 19 19 19 18 19 18 18 18 18 18 18 18 17 17 17 17 17 18
19 17 14 16 19 20 21 21 21 20 20 19 20 21 20 20 20 20 20 20 21 21 20 20 20 19 18 18 18 19 19 19 19 19 19 18 18 17 17 18 17 17 17 16 16 16 17 17 17
18 13 15 17 19 20 19 20 19 19 19 19 19 19 20 19 19 20 21 21 20 19 20 20 20 20 19 18 18 19 19 19 19 18 18 18 17 17 17 17 16 17 17 16 16 16 17 17 18
14 13 14 17 19 19 19 17 19 18 18 18 19 18 19 19 20 21 22 22 21 20 19 20 20 20 20 19 19 19 19 19 19 18 18 17 17 16 16 16 16 16 16 15 15 15 17 17 18
14 13 16 18 18 19 18 16 18 17 17 19 19 19 19 19 21 21 22 23 23 20 19 19 19 19 20 20 19 19 19 19 18 18 18 17 17 16 16 17 16 15 15 15 15 15 16 17 17
12 13 18 16 16 19 16 16 17 16 16 17 19 18 19 18 21 20 21 21 22 22 21 19 20 19 19 19 20 19 19 18 18 19 18 16 16 16 16 16 15 15 15 15 14 14 16 16 16
15 13 14 16 16 16 15 15 15 15 15 16 18 18 18 19 20 20 20 20 20 21 22 21 19 18 19 20 19 19 19 18 18 19 17 16 16 16 16 16 15 15 14 14 14 15 16 16 16
12 13 16 17 16 15 15 14 14 15 14 14 15 16 18 18 17 17 18 18 19 19 21 21 20 20 19 20 20 19 19 18 18 18 17 16 16 17 16 15 15 15 14 14 14 16 16 16 16
14 15 15 16 16 14 14 14 15 15 13 14 15 14 14 16 16 16 16 18 19 20 20 20 21 20 20 19 19 19 18 18 17 18 18 17 16 16 16 15 14 14 15 14 14 15 16 16 16
14 15 15 14 15 13 13 14 13 13 14 15 14 14 14 14 14 15 16 18 19 19 20 20 20 20 20 19 18 18 18 18 17 17 17 17 16 16 16 15 15 14 15 14 15 15 16 16 16
14 14 14 14 13 13 13 12 12 13 14 13 14 14 13 14 14 16 17 18 19 18 19 20 19 20 20 19 18 17 17 17 17 16 16 17 16 16 16 15 15 15 15 15 15 15 15 16 15
13 12 12 13 13 13 14 13 13 13 14 14 14 14 13 13 14 16 16 17 19 19 19 20 19 19 19 19 18 16 16 15 15 16 15 16 16 16 16 16 15 15 15 15 15 15 15 15 15
13 12 12 14 14 14 13 13 13 14 14 13 14 15 14 14 16 15 17 18 19 20 20 19 19 19 19 19 17 16 16 16 14 13 14 15 15 16 16 16 15 15 15 15 15 15 15 15 15
13 13 11 14 14 15 15 12 13 14 13 14 14 14 16 15 15 16 18 18 19 19 19 20 19 19 19 17 15 15 15 15 15 14 12 13 15 15 16 15 15 15 15 15 15 15 15 14 14
10 10 12 12 13 13 14 12 14 15 14 14 14 14 15 15 15 16 17 18 18 18 19 19 19 19 18 17 15 14 14 15 15 15 14 12 12 13 15 15 15 15 15 15 15 14 15 14 14
11 10 11 11 12 13 12 12 14 15 14 13 13 13 13 13 14 16 17 18 18 19 19 18 18 19 16 14 13 13 13 14 14 14 12 12 13 13 13 15 15 15 15 15 14 14 14 14 13
12 11 10 12 13 12 11 12 13 14 13 12 11 11 11 12 13 16 16 16 17 18 18 17 17 17 13 12 12 12 12 12 13 13 12 12 12 11 13 14 14 14 14 14 14 14 13 13 13
12 10 9 11 13 13 13 12 13 13 12 12 12 12 12 14 16 14 15 16 16 16 16 16 15 15 12 13 13 13 12 11 11 12 12 12 11 11 11 13 14 14 14 14 14 14 12 13 13
11 11 10 11 12 11 11 10 11 14 13 14 14 13 13 14 15 14 14 15 15 16 17 16 16 14 11 14 13 12 11 10 10 10 11 12 12 11 11 11 13 13 13 13 13 14 14 12 12
8 12 12 11 10 7 11 10 10 12 12 14 13 12 14 12 12 12 12 13 14 14 14 16 15 14 11 12 13 12 11 11 10 10 10 10 11 11 10 11 12 13 13 13 13 13 13 13 12
12 13 11 11 6 6 9 9 10 11 13 13 14 13 12 11 10 11 10 12 13 13 13 13 14 12 10 11 11 11 10 11 9 8 9 9 10 10 11 10 11 12 12 12 12 12 12 13 12
13 12 10 5 4 9 9 9 11 12 14 14 14 12 12 11 11 12 12 12 12 12 11 12 12 11 10 10 11 11 10 10 8 7 8 8 9 10 11 11 12 12 11 12 12 12 12 12 12
12 9 5 6 5 9 11 9 11 13 13 13 13 12 11 10 10 11 11 10 11 11 10 11 11 10 10 10 11 11 10 9 9 8 7 7 8 9 9 10 12 11 10 11 11 11 11 11 11
13 10 6 7 7 11 11 9 11 12 14 13 12 10 10 10 11 11 10 10 10 11 10 11 10 10 10 10 10 10 9 9 9 8 8 8 8 8 9 10 11 11 10 10 10 10 10 10 11
12 9 11 7 9 9 8 10 13 14 13 12 11 9 9 10 10 9 10 10 9 9 9 10 10 10 10 9 9 9 8 8 8 7 7 7 7 8 9 10 10 9 9 9 9 9 9 10 9
13 12 9 7 6 7 8 9 11 12 12 11 9 8 9 9 10 9 10 10 10 10 11 11 10 9 9 9 9 8 8 8 7 7 7 7 7 8 8 9 9 9 9 9 9 9 8 8 8
11 11 10 8 7 6 8 11 10 13 14 11 9 9 9 8 9 9 9 10 9 10 9 9 10 9 9 9 8 8 7 7 6 6 6 7 7 8 8 8 8 8 8 8 8 8 8 8 7
12 11 10 7 8 7 8 12 16 14 13 10 9 10 9 9 9 9 10 9 10 10 10 9 9 9 9 9 8 7 7 6 6 6 6 6 7 7 8 8 8 8 8 8 8 8 8 7 7

GFSSGP_925_temp_189.txt.gz
Temp
18 19 20 19 18 15 18 21 19 20 21 21 20 21 20 20 21 21 20 20 21 21 20 19 19 18 18 19 18 18 18 19 19 19 19 19 18 18 18 18 18 18 18 18 18 18 17 17 18
19 20 20 13 16 17 17 19 21 21 21 18 22 22 20 20 20 20 19 20 19 20 20 20 19 18 18 19 18 19 19 19 19 19 18 19 18 18 18 18 19 18 18 18 18 18 17 18 18
19 19 16 14 12 17 18 20 20 21 19 19 22 20 20 20 20 19 19 20 20 20 20 20 19 18 18 18 18 19 19 19 19 19 19 19 19 18 18 18 18 18 18 19 18 17 17 18 18
19 16 13 15 19 19 19 19 19 18 20 18 18 21 19 19 19 19 19 19 21 20 20 20 20 19 18 18 18 19 19 19 19 19 19 19 19 18 18 18 18 17 18 17 16 16 17 17 17
17 12 14 15 18 19 18 18 17 18 18 18 17 19 18 19 19 20 20 20 20 19 19 19 20 19 19 18 18 19 19 19 18 18 19 19 18 18 18 18 17 17 17 17 16 16 17 17 17
14 12 14 16 18 18 18 14 17 17 17 16 18 18 18 19 19 20 21 22 21 20 20 19 19 19 19 18 18 19 19 19 19 19 18 18 17 17 17 16 16 16 16 16 16 16 16 16 16
14 13 15 16 17 18 17 14 17 16 15 17 18 18 19 18 20 20 20 20 21 20 20 19 19 19 19 18 18 19 19 19 19 18 18 18 18 17 16 16 16 16 15 15 15 15 15 15 16
12 13 17 16 16 18 15 14 16 15 15 15 17 16 18 18 19 19 19 20 20 20 20 20 20 19 19 19 19 19 19 19 18 18 18 19 17 16 16 16 16 15 15 15 15 14 15 14 16
13 13 14 17 16 17 14 14 15 15 14 15 16 17 18 18 19 18 19 19 19 20 20 20 20 19 19 18 19 19 19 19 18 18 18 18 16 16 16 16 16 15 15 15 14 14 15 15 16
12 12 16 16 16 15 14 14 14 14 14 13 14 15 17 17 17 15 16 16 18 19 20 20 20 20 20 19 19 18 18 18 19 18 18 18 16 17 16 16 16 15 15 14 14 14 15 15 16
13 14 14 15 15 14 14 13 14 14 14 13 15 15 14 15 15 14 15 16 17 18 19 20 20 20 20 20 20 19 18 17 18 18 18 18 17 16 16 16 15 15 14 14 14 14 15 15 16
15 14 14 14 15 13 13 13 13 12 14 15 13 13 12 13 12 14 15 17 18 18 18 19 20 20 19 19 19 19 18 18 18 18 17 18 17 16 16 16 15 15 15 14 14 15 15 15 15
13 14 13 13 12 12 12 12 12 12 13 13 12 12 12 12 13 16 16 17 18 18 19 19 19 19 20 19 19 18 16 17 17 17 17 17 17 17 16 15 15 15 15 14 14 14 15 15 15
12 12 11 12 13 13 13 13 14 13 13 13 13 13 12 12 13 14 16 16 18 19 19 19 19 19 19 19 19 19 17 16 15 16 15 16 16 16 16 15 14 14 15 14 15 15 15 15 15
12 12 12 13 14 14 13 12 12 13 12 12 12 13 14 14 14 14 16 16 17 18 19 19 19 19 19 19 18 16 18 16 16 15 14 12 13 14 14 15 14 14 14 14 14 14 15 15 14
12 11 12 15 13 15 13 11 13 13 12 12 13 13 14 13 13 15 15 15 17 18 18 19 19 19 19 18 18 16 14 15 15 15 15 12 14 13 13 14 14 14 14 14 14 14 14 14 14
9 10 12 11 13 13 14 11 14 15 13 12 12 12 12 13 13 14 15 15 16 17 17 18 18 18 18 18 17 16 14 14 14 15 14 13 12 14 12 12 14 14 14 14 14 14 14 13 13
12 11 11 10 12 12 11 11 13 14 12 12 11 11 11 11 12 14 15 15 16 16 16 16 16 17 17 16 15 13 13 14 14 14 14 13 13 13 12 12 13 14 14 14 14 14 13 14 13
12 11 10 10 12 11 11 11 13 13 12 11 10 10 10 11 11 13 15 15 16 16 16 16 16 15 15 14 12 12 12 13 13 13 13 13 12 12 12 12 13 12 14 14 14 13 13 12 12
12 11 9 10 12 12 12 11 12 12 11 12 12 11 10 10 12 13 15 16 16 16 16 16 16 15 14 13 13 12 12 12 13 11 12 12 12 12 11 11 11 12 13 13 13 14 12 11 12
11 10 10 11 11 10 10 10 11 12 12 13 13 12 12 12 13 12 12 14 15 15 16 16 16 15 15 15 11 11 11 11 11 11 11 11 12 11 11 11 11 11 12 13 13 13 13 11 12
8 11 11 11 8 7 10 8 9 11 11 12 13 12 12 12 12 11 11 12 13 13 13 13 14 14 13 14 11 11 11 11 10 11 11 11 11 11 11 11 10 11 13 13 13 13 13 13 12
12 12 11 10 5 5 8 8 9 11 12 13 13 12 11 11 10 10 10 12 12 12 12 12 12 12 12 11 11 11 11 11 10 10 9 10 10 11 10 10 10 10 10 12 13 13 12 13 12
12 11 9 4 3 6 9 8 10 11 13 13 14 12 11 10 10 11 11 11 11 11 10 11 11 10 10 10 11 10 11 11 9 9 8 9 9 10 10 10 10 11 11 12 13 12 12 12 13
12 9 6 7 5 9 9 8 11 12 12 12 12 11 10 9 8 10 10 10 10 9 9 9 9 9 9 10 10 11 10 10 9 9 8 8 9 9 9 10 10 11 11 11 12 12 11 12 12
12 10 6 7 6 9 9 8 11 11 11 11 11 10 9 8 10 10 9 9 9 9 9 9 9 9 9 9 10 11 10 9 9 9 8 8 9 9 9 9 10 11 11 11 11 12 11 10 11
11 9 10 6 8 9 8 9 11 13 13 13 11 10 10 9 9 9 9 9 9 10 10 10 8 8 9 9 10 10 10 10 9 8 8 8 8 8 9 9 10 10 10 10 11 10 10 9 9
12 10 8 6 6 6 8 7 11 11 12 11 10 10 9 8 9 8 9 9 9 10 10 10 10 10 10 9 10 10 9 9 8 8 7 7 7 8 8 8 8 9 10 10 10 9 9 9 8
10 10 8 7 6 5 7 11 10 11 12 11 10 9 9 9 8 8 10 10 9 9 9 10 9 9 9 9 9 8 8 7 7 7 6 7 6 7 7 7 8 8 9 9 9 9 8 9 8
12 11 9 8 7 7 6 11 15 14 12 11 12 10 9 9 8 8 9 9 9 9 10 9 9 9 9 9 8 8 7 7 6 6 6 6 7 7 7 8 7 8 8 8 9 8 8 7 6

GFSSGP_925_temp_192.txt.gz
Temp
18 19 20 18 17 14 17 20 19 20 20 19 17 20 20 19 20 20 20 20 20 20 20 19 19 19 19 19 19 19 18 18 18 18 18 18 19 19 18 18 18 18 18 18 18 18 17 17 17
18 19 19 12 15 17 17 18 20 20 19 16 19 20 19 19 20 20 19 20 19 19 19 19 19 19 19 19 19 19 18 19 18 18 18 19 18 18 18 18 18 19 18 18 18 18 17 17 17
19 19 16 13 12 16 17 19 19 19 18 17 20 18 19 19 19 18 19 20 20 19 19 19 19 19 18 19 19 19 18 19 19 19 19 19 18 18 18 18 18 18 18 18 18 18 17 17 17
19 15 12 15 18 18 18 17 15 17 18 17 17 20 18 18 18 18 19 20 20 19 19 19 19 19 18 18 18 19 18 19 19 18 19 19 19 18 18 19 18 18 18 18 18 17 17 17 17
17 12 13 15 18 18 17 16 16 17 17 17 16 19 17 18 19 18 19 19 20 20 19 19 19 19 19 18 18 18 19 19 19 19 19 18 19 18 18 18 18 18 17 17 17 16 16 17 17
13 12 14 15 17 17 17 13 16 16 16 15 18 17 17 19 19 19 19 19 20 20 19 19 20 19 18 18 18 18 19 19 19 19 19 18 18 18 18 18 17 17 17 17 16 16 16 16 16
14 13 14 15 17 17 17 13 16 15 15 16 16 17 18 18 19 19 19 19 20 20 20 19 19 19 19 18 18 18 18 19 19 19 19 18 18 18 17 17 16 16 16 16 15 15 16 16 16
11 12 16 15 16 18 15 13 15 15 15 14 16 15 18 18 18 18 19 19 20 20 20 20 20 20 20 19 18 18 18 19 19 18 18 18 18 17 17 16 16 16 15 15 15 15 14 15 16
13 13 14 16 16 16 14 14 14 14 14 14 15 16 17 18 18 18 18 19 19 20 20 20 20 20 19 19 19 18 18 18 19 18 18 18 18 17 16 16 16 15 15 14 14 14 14 15 16
11 12 16 15 15 15 14 13 14 14 14 12 13 14 17 17 16 15 14 15 16 18 20 19 20 20 20 20 19 19 18 18 18 18 18 18 18 17 16 16 16 15 15 14 14 14 14 15 16
13 14 14 15 15 14 13 12 13 13 13 12 15 14 14 14 14 13 15 15 16 17 18 19 19 19 20 20 20 20 19 18 18 18 18 18 18 17 16 16 16 15 14 14 14 14 14 15 15
15 14 14 14 14 13 13 12 12 11 13 15 13 12 11 11 11 13 15 17 17 17 18 19 19 19 19 19 19 19 20 17 17 17 17 17 17 17 16 16 16 15 14 14 14 14 14 15 15
13 13 12 12 11 11 12 11 11 12 13 11 11 11 11 11 12 14 16 16 17 16 18 18 19 18 19 19 19 19 19 17 17 17 17 17 17 17 16 16 15 15 14 14 14 14 14 15 14
11 11 11 11 12 12 12 12 13 13 13 13 12 12 11 11 12 13 14 15 16 17 17 18 18 19 18 18 18 18 18 18 15 15 16 16 15 14 15 15 14 14 14 14 14 14 14 14 14
11 12 12 13 13 13 13 13 10 12 12 11 11 12 12 12 13 12 14 14 15 16 17 17 18 18 18 18 18 17 17 17 15 15 15 15 14 14 12 14 14 13 13 13 13 14 14 14 14
11 11 12 14 12 13 13 13 14 13 12 11 11 11 11 11 12 13 14 14 14 14 15 16 17 17 18 18 18 17 17 16 14 14 14 14 14 14 14 12 13 13 13 13 13 14 14 14 14
9 10 12 11 13 13 14 11 14 14 11 10 10 10 10 10 11 13 13 14 15 15 15 16 16 16 16 17 17 16 15 15 14 14 14 14 14 14 12 12 12 12 13 13 13 13 14 13 13
12 11 11 9 12 11 10 10 12 13 12 10 9 9 9 10 11 12 14 15 16 16 16 16 16 16 15 15 15 14 13 13 14 14 14 13 13 12 12 12 11 12 12 13 13 13 13 13 13
12 11 10 9 11 11 10 10 12 13 10 10 10 10 10 10 11 13 15 16 17 17 17 17 16 16 16 13 10 11 12 13 13 13 13 13 12 12 12 12 12 12 12 13 13 13 12 11 12
11 11 9 10 11 11 10 10 12 10 11 12 12 11 11 11 13 14 15 16 16 15 16 16 16 16 15 15 13 12 11 11 12 12 12 12 11 12 12 12 11 12 12 13 12 13 11 10 11
11 11 11 11 10 10 8 10 11 12 12 12 12 11 11 11 12 12 12 14 14 14 14 13 13 15 14 14 14 12 11 10 10 11 11 11 11 11 12 12 12 11 12 12 13 12 12 11 11
9 10 11 10 8 7 9 9 9 11 11 12 12 11 11 10 10 10 10 11 12 12 12 12 12 12 12 12 13 12 11 11 10 10 11 11 11 11 11 12 11 12 11 10 11 13 13 13 11
12 12 10 9 4 5 8 7 9 10 13 14 13 11 10 10 9 9 9 11 11 11 11 10 11 10 10 11 11 11 11 10 10 10 10 11 11 11 11 11 11 11 11 12 12 12 13 13 12
11 11 8 4 3 4 8 7 10 12 13 13 13 12 11 9 9 9 11 10 10 10 10 9 9 9 9 9 10 10 10 10 10 9 10 10 10 10 10 10 10 11 11 11 11 12 12 13 13
11 9 5 7 5 9 8 7 10 12 12 11 11 10 9 9 9 9 9 9 9 9 9 8 9 10 9 8 9 9 10 10 10 9 9 9 8 8 9 10 10 10 11 11 11 11 11 12 12
11 11 6 6 6 8 8 8 11 10 11 10 9 9 8 9 8 8 9 8 8 8 8 9 9 10 9 8 8 9 10 10 9 8 9 9 9 9 10 10 10 10 10 10 10 11 11 11 12
10 9 9 6 7 8 7 8 10 12 12 12 11 10 9 9 8 8 8 8 9 9 8 9 9 10 8 8 8 9 9 10 9 8 8 8 8 8 9 9 9 10 10 10 10 10 11 10 11
12 10 8 6 7 6 6 7 10 11 11 10 10 9 9 8 8 8 7 8 9 9 8 9 9 9 10 9 8 9 9 9 8 8 8 8 8 8 8 9 8 9 9 10 10 10 9 9 9
10 10 8 7 5 5 7 9 8 10 11 11 9 10 10 8 9 8 7 8 8 9 10 10 10 9 9 9 9 9 9 9 8 9 8 7 7 8 8 8 8 9 9 8 9 9 9 8 8
11 10 8 7 6 8 7 10 13 12 10 12 12 12 8 8 8 8 7 8 8 9 9 9 9 9 9 9 8 7 8 8 7 7 6 6 6 7 7 8 8 8 8 7 8 7 7 8 6

GFSSGP_925_temp_195.txt.gz
Temp
18 19 20 19 21 19 19 20 19 21 21 19 18 20 21 20 21 22 19 19 19 19 19 19 20 20 19 20 19 19 19 19 19 20 19 19 19 19 18 19 18 18 18 18 18 18 17 17 17
18 19 19 15 20 21 20 19 20 20 19 18 18 20 20 20 20 20 20 19 19 19 19 19 19 19 20 19 19 19 18 19 19 19 19 19 19 18 18 18 18 18 18 18 18 17 17 16 17
18 19 18 16 16 20 20 19 19 19 18 18 20 19 19 20 19 18 19 19 19 19 19 19 19 19 19 19 19 19 18 19 19 19 19 19 18 18 18 18 19 18 18 18 18 18 17 17 17
18 16 15 18 18 17 18 17 16 18 19 18 17 20 19 18 18 18 19 19 19 19 19 19 19 19 19 18 19 19 18 19 19 19 19 19 19 19 18 18 18 18 18 18 18 17 17 17 17
17 14 16 16 17 17 17 16 15 18 17 18 17 20 19 18 18 18 19 20 20 19 19 18 18 18 18 18 18 19 18 19 19 19 19 19 19 19 18 19 18 18 18 18 18 17 17 17 17
15 14 16 17 17 17 16 14 15 16 16 17 18 17 18 18 18 18 18 19 20 20 20 20 19 18 18 18 18 18 19 19 19 19 19 19 18 18 19 18 18 18 17 17 17 17 17 16 17
15 14 15 15 16 17 17 14 16 16 16 17 16 18 18 18 18 18 18 19 19 20 20 20 20 19 19 19 19 18 19 19 18 18 18 19 18 18 19 18 17 17 17 16 16 16 16 16 17
12 14 15 15 16 18 15 15 14 15 16 15 15 17 18 17 18 18 18 19 19 19 20 20 20 20 19 19 19 19 19 19 19 18 18 18 18 18 18 17 16 16 16 16 16 15 15 16 16
13 15 15 16 15 17 15 15 15 14 14 14 15 16 17 18 17 18 18 18 19 19 19 20 20 20 20 19 19 19 19 18 19 18 18 18 18 18 18 16 16 16 16 15 15 14 15 15 16
13 14 16 15 15 15 14 13 14 14 14 14 14 15 16 17 16 14 14 15 17 18 19 18 19 19 19 19 19 18 18 19 18 18 18 18 18 18 18 16 16 15 15 15 14 14 14 15 14
13 15 14 15 14 14 13 13 13 13 15 14 16 16 15 14 14 13 14 15 16 17 18 18 18 19 19 19 19 20 19 18 19 18 18 18 18 17 17 16 15 15 15 14 14 14 15 15 15
14 13 13 14 13 13 13 12 13 12 15 14 13 13 12 13 14 13 14 15 15 16 17 18 18 18 18 18 19 19 19 19 19 18 18 18 18 17 17 16 16 15 14 14 14 14 15 15 15
14 13 12 12 11 11 11 12 12 13 14 13 12 13 13 13 13 13 14 14 15 15 17 17 17 18 18 18 18 18 19 19 19 17 17 17 17 17 16 16 15 15 14 14 14 14 14 15 15
11 11 11 11 12 12 12 12 13 14 12 13 13 13 13 12 13 12 13 14 15 15 15 16 16 17 17 18 18 18 18 18 17 16 16 16 16 16 15 14 13 14 14 14 14 14 14 14 15
11 14 13 13 13 13 12 13 11 13 12 13 12 12 12 13 12 12 13 13 14 15 14 15 16 16 17 18 18 18 18 17 16 15 14 15 15 15 14 14 14 12 13 13 13 13 14 14 14
11 11 14 14 12 12 14 16 13 13 12 13 12 12 12 12 12 12 13 13 14 15 15 15 16 16 17 17 17 17 17 16 15 14 13 14 14 14 14 14 12 12 12 13 13 13 13 13 13
10 13 13 13 12 12 13 14 14 13 12 12 12 12 12 12 12 12 14 14 15 16 16 16 16 16 16 17 16 16 15 15 15 14 13 13 13 13 13 13 12 12 13 13 13 13 13 13 12
15 14 12 11 12 11 11 12 13 14 12 12 11 11 11 12 12 12 14 15 15 16 16 16 17 17 17 17 16 14 14 14 14 13 12 13 14 13 13 12 11 11 11 12 12 12 13 12 11
11 11 11 10 10 11 10 11 13 13 11 12 12 12 12 12 12 13 14 15 15 16 16 16 16 15 15 16 16 14 12 12 12 13 12 13 13 13 12 12 12 11 12 12 12 12 12 10 11
11 11 10 10 10 11 10 11 13 11 12 12 13 13 12 13 13 13 14 15 14 14 15 15 15 14 13 13 14 15 14 12 11 11 11 12 12 11 12 12 12 11 12 12 12 12 10 9 11
11 11 11 12 10 9 9 12 12 13 11 12 12 11 12 12 12 12 12 13 14 13 13 13 13 12 12 11 12 12 12 12 11 11 11 11 12 12 11 11 11 11 12 11 11 12 12 10 10
10 10 11 10 9 10 9 13 11 12 12 12 12 12 12 11 11 11 11 12 12 12 11 11 11 11 11 11 10 10 11 11 11 11 11 11 11 12 11 11 11 11 11 11 11 12 13 14 11
12 11 10 9 6 6 8 8 12 10 15 16 14 13 12 11 10 11 11 11 11 11 10 10 9 9 10 10 9 9 10 11 12 11 10 10 11 11 11 11 11 11 11 12 11 10 11 11 11
11 9 8 5 6 7 9 9 13 14 14 15 13 12 11 11 10 10 11 10 10 9 9 9 9 9 10 10 10 8 9 10 10 10 9 9 10 10 10 11 11 11 11 11 11 11 11 11 11
11 10 7 9 7 12 8 9 13 12 12 12 12 12 11 10 10 11 10 10 9 9 9 9 8 8 9 9 10 9 8 9 10 11 9 9 9 9 10 10 10 10 10 11 11 11 10 11 11
10 11 8 9 9 10 8 10 13 11 11 10 10 9 9 10 10 10 10 9 8 8 8 9 8 8 9 9 9 8 8 9 10 10 9 9 9 9 10 10 10 11 10 11 10 11 11 11 11
10 10 9 8 7 8 8 9 10 12 12 12 11 10 11 11 11 10 9 9 8 8 9 9 9 8 10 9 9 7 7 8 9 10 9 8 8 9 10 9 9 9 10 10 10 10 10 10 11
11 9 9 8 7 7 8 7 12 12 12 11 10 11 11 10 10 9 10 9 8 8 9 9 10 10 10 9 9 8 7 8 9 9 8 8 8 9 9 9 8 9 9 9 9 10 9 9 10
10 10 8 8 7 8 7 9 9 11 11 10 12 12 10 9 9 10 9 8 7 8 9 9 9 9 9 9 9 8 8 9 9 9 8 8 8 8 7 8 8 9 9 9 9 9 9 9 9
11 10 9 8 8 8 7 10 12 12 10 13 13 12 10 8 9 9 8 7 9 8 8 8 8 9 9 8 8 9 9 8 8 7 7 7 7 7 7 7 8 8 8 8 9 9 9 9 7